Pacific Dawn — 2AGH7 — position and weather

sailwx.info

Track history (hours):
 
Tides and Currents Weather Stations Pressure Air Temp Water Temp Dewpoint Dewpoint Depression Visibility Wind Speed Wind Dir Waves Ship Positions

Pacific Dawn

Last reported at 2014-Sep-28 12:00 UTC. Time now 2014-Oct-02 10:42 UTC.
Position S 23°54' E 161°36'.

Length 245 m; draft 8.3 m.

Type: Passenger vessel. MMSI: 235059368.

Wind from 170 at 40 knots

Waves 3.5 meters (11 feet), 2 second period

Barometer 1014.3 mb
Air temperature 20.0 ° C
Visibility: greater than 5.4 NM
Dewpoint 14.9 ° C
Water temperature 21.0 ° C

Date/timePositionNaut miles runAvg speedWind from/ knotsBaromVisibWave heightAir tempDewpointWater temp
2014-Sep-28 12:00S 23°54' E 161°36'46817.7 170 / 401014.3 5.4 3.520.014.921.0
2014-Sep-27 09:33S 26°37' E 153°31'1717.4
2014-Sep-27 08:33S 26°43' E 153°13'1212.0
2014-Sep-27 07:33S 26°55' E 153°11'1716.9
2014-Sep-27 06:33S 27°09' E 153°21'1515.3
2014-Sep-27 05:34S 27°21' E 153°11'8 7.7
2014-Sep-27 04:34S 27°27' E 153°05'1 0.6
2014-Sep-27 03:33S 27°26' E 153°04'0 0.0
2014-Sep-27 02:33S 27°26' E 153°04'0 0.0
2014-Sep-27 01:33S 27°26' E 153°04'0 0.0
2014-Sep-27 00:33S 27°26' E 153°04'0 0.0
2014-Sep-26 23:33S 27°26' E 153°04'0 0.0
2014-Sep-26 22:33S 27°26' E 153°04'0 0.0
2014-Sep-26 21:33S 27°26' E 153°04'0 0.0
2014-Sep-26 20:33S 27°26' E 153°04'0 0.0
2014-Sep-26 19:33S 27°26' E 153°04'5 4.9
2014-Sep-26 18:33S 27°24' E 153°09'1211.7
2014-Sep-26 17:33S 27°15' E 153°18'1313.0
2014-Sep-26 16:33S 27°03' E 153°16'1414.5
2014-Sep-26 15:33S 26°49' E 153°10'1312.8
2014-Sep-26 14:33S 26°38' E 153°16'  
2014-Sep-20 11:09S 26°41' E 153°14'712.1
2014-Sep-20 10:33S 26°47' E 153°11'1514.8
2014-Sep-20 09:33S 27°01' E 153°15'1413.9
2014-Sep-20 08:33S 27°15' E 153°19'1212.4
2014-Sep-20 07:33S 27°24' E 153°09'5 5.2
2014-Sep-20 06:33S 27°27' E 153°04'0 0.0
2014-Sep-20 05:32S 27°26' E 153°04'0 0.0
2014-Sep-20 04:32S 27°26' E 153°04'0 0.0
2014-Sep-20 03:32S 27°26' E 153°04'0 0.0
2014-Sep-20 02:32S 27°26' E 153°04'0 0.0
2014-Sep-20 01:29S 27°26' E 153°04'0 0.0
2014-Sep-20 00:29S 27°26' E 153°04'0 0.0
2014-Sep-19 23:23S 27°26' E 153°04'0 0.0
2014-Sep-19 22:32S 27°26' E 153°04'0 0.0
2014-Sep-19 21:34S 27°26' E 153°04'4 4.4
2014-Sep-19 20:33S 27°25' E 153°09'1110.6
2014-Sep-19 19:34S 27°16' E 153°16'1313.0
2014-Sep-19 18:34S 27°03' E 153°18'1515.5
2014-Sep-19 17:33S 26°50' E 153°09'1313.3
2014-Sep-19 16:33S 26°38' E 153°16'1515.0
2014-Sep-19 15:32S 26°24' E 153°21'  
Track history (hours):
 
Tides and Currents Weather Stations Pressure Air Temp Water Temp Dewpoint Dewpoint Depression Visibility Wind Speed Wind Dir Waves Ship Positions

Pacific Dawn

Last reported at 2014-Sep-28 12:00 UTC. Time now 2014-Oct-02 10:42 UTC.
Position S 23°54' E 161°36'.

Length 245 m; draft 8.3 m.

Type: Passenger vessel. MMSI: 235059368.

Wind from 170 at 40 knots

Waves 3.5 meters (11 feet), 2 second period

Barometer 1014.3 mb
Air temperature 20.0 ° C
Visibility: greater than 5.4 NM
Dewpoint 14.9 ° C
Water temperature 21.0 ° C

Date/timePositionNaut miles runAvg speedWind from/ knotsBaromVisibWave heightAir tempDewpointWater temp
2014-Sep-28 12:00S 23°54' E 161°36'46817.7 170 / 401014.3 5.4 3.520.014.921.0
2014-Sep-27 09:33S 26°37' E 153°31'1717.4
2014-Sep-27 08:33S 26°43' E 153°13'1212.0
2014-Sep-27 07:33S 26°55' E 153°11'1716.9
2014-Sep-27 06:33S 27°09' E 153°21'1515.3
2014-Sep-27 05:34S 27°21' E 153°11'8 7.7
2014-Sep-27 04:34S 27°27' E 153°05'1 0.6
2014-Sep-27 03:33S 27°26' E 153°04'0 0.0
2014-Sep-27 02:33S 27°26' E 153°04'0 0.0
2014-Sep-27 01:33S 27°26' E 153°04'0 0.0
2014-Sep-27 00:33S 27°26' E 153°04'0 0.0
2014-Sep-26 23:33S 27°26' E 153°04'0 0.0
2014-Sep-26 22:33S 27°26' E 153°04'0 0.0
2014-Sep-26 21:33S 27°26' E 153°04'0 0.0
2014-Sep-26 20:33S 27°26' E 153°04'0 0.0
2014-Sep-26 19:33S 27°26' E 153°04'5 4.9
2014-Sep-26 18:33S 27°24' E 153°09'1211.7
2014-Sep-26 17:33S 27°15' E 153°18'1313.0
2014-Sep-26 16:33S 27°03' E 153°16'1414.5
2014-Sep-26 15:33S 26°49' E 153°10'1312.8
2014-Sep-26 14:33S 26°38' E 153°16'  
2014-Sep-20 11:09S 26°41' E 153°14'712.1
2014-Sep-20 10:33S 26°47' E 153°11'1514.8
2014-Sep-20 09:33S 27°01' E 153°15'1413.9
2014-Sep-20 08:33S 27°15' E 153°19'1212.4
2014-Sep-20 07:33S 27°24' E 153°09'5 5.2
2014-Sep-20 06:33S 27°27' E 153°04'0 0.0
2014-Sep-20 05:32S 27°26' E 153°04'0 0.0
2014-Sep-20 04:32S 27°26' E 153°04'0 0.0
2014-Sep-20 03:32S 27°26' E 153°04'0 0.0
2014-Sep-20 02:32S 27°26' E 153°04'0 0.0
2014-Sep-20 01:29S 27°26' E 153°04'0 0.0
2014-Sep-20 00:29S 27°26' E 153°04'0 0.0
2014-Sep-19 23:23S 27°26' E 153°04'0 0.0
2014-Sep-19 22:32S 27°26' E 153°04'0 0.0
2014-Sep-19 21:34S 27°26' E 153°04'4 4.4
2014-Sep-19 20:33S 27°25' E 153°09'1110.6
2014-Sep-19 19:34S 27°16' E 153°16'1313.0
2014-Sep-19 18:34S 27°03' E 153°18'1515.5
2014-Sep-19 17:33S 26°50' E 153°09'1313.3
2014-Sep-19 16:33S 26°38' E 153°16'1515.0
2014-Sep-19 15:32S 26°24' E 153°21'  

Dump ship's entire track history